Regional Weather Roundup
Issued by NWS

Home | Current Version | Previous Version | Text Only | Print | Product List | Glossary On
Versions: 1 2 3 4 5 6 7 8 9 10 11 12 13 14 15 16 17 18 19 20 21 22 23 24 25 26 27 28 29 30 31 32 33 34 35 36 37 38 39 40 41 42 43 44 45 46 47 48 49 50
388
ASUS43 KLMK 021602
RWRKY
KENTUCKY REGIONAL WEATHER ROUNDUP
NATIONAL WEATHER SERVICE LOUISVILLE KY
1200 PM EDT MON MAY 02 2016

NOTE "FAIR" INDICATES FEW OR NO CLOUDS BELOW 12,000 FEET
WITH NO SIGNIFICANT WEATHER AND/OR OBSTRUCTIONS TO VISIBILITY.

KYZ001>023-026-027-061>063-070>075-021700-
WESTERN AND SOUTH CENTRAL KENTUCKY

CITY           SKY/WX    TMP DP  RH WIND       PRES   REMARKS
PADUCAH        PTSUNNY   63  50  62 CALM      30.03R
HENDERSON      CLOUDY    63  50  63 SW7       30.02R
OWENSBORO      PTSUNNY   63  53  69 SW7       30.03R
HOPKINSVILLE   DRIZZLE   57  54  88 SW8       30.03R
BOWLING GREEN  LGT RAIN  61  56  83 W5        30.03S
GLASGOW        NOT AVBL
$$

KYZ024-025-028>034-038-045-046-053-021700-
NORTH CENTRAL KENTUCKY

CITY           SKY/WX    TMP DP  RH WIND       PRES   REMARKS
LOUISVILLE/SDF LGT RAIN  64  51  62 MISG      29.97F
LOUISVILLE/LOU LGT RAIN  63  52  67 CALM      29.97F
FORT KNOX      CLOUDY    62  54  74 SW6       29.99R
$$

KYZ035>037-039>044-047>052-055>060-089>105-021700-
NORTHEAST KENTUCKY

CITY           SKY/WX    TMP DP  RH WIND       PRES   REMARKS
LEXINGTON      SUNNY     69  52  54 S7        29.97F
COVINGTON      NOT AVBL
FRANKFORT      MOSUNNY   69  54  58 S7        29.95F
$$

KYZ054-064>069-076>088-106>120-021700-
SOUTHEAST KENTUCKY

CITY           SKY/WX    TMP DP  RH WIND       PRES   REMARKS
JACKSON        PTSUNNY   72  61  68 VRB3      29.99F
LONDON         LGT RAIN  68  62  81 S3        29.99F
SOMERSET       NOT AVBL
MIDDLESBORO    CLOUDY    73  63  71 SE3       30.00F
MONTICELLO     TSTM      66  64  93 W8        30.01S FOG
$$





USA.gov is the U.S. government's official web portal to all federal, state and local government web resources and services.